Regional Weather Roundup
Issued by NWS

Home | Current Version | Previous Version | Text Only | Print | Product List | Glossary Off
Versions: 1 2 3 4 5 6 7 8 9 10 11 12 13 14 15 16 17 18 19 20 21 22 23 24 25 26 27 28 29 30 31 32 33 34 35 36 37 38 39 40 41 42 43 44 45 46 47 48 49 50

000
ASUS43 KFSD 010002
RWRSD

WEATHER ROUNDUP FOR SOUTH DAKOTA
NATIONAL WEATHER SERVICE SIOUX FALLS SD
700 PM CDT FRI JUL 31 2015

NOTE: "FAIR" INDICATES FEW OR NO CLOUDS BELOW 12,000 FEET WITH NO
SIGNIFICANT WEATHER AND/OR OBSTRUCTIONS TO VISIBILITY.


SDZ001>005-009-010-012>017-010100-
NORTHWEST AND NORTH CENTRAL SOUTH DAKOTA

CITY           SKY/WX    TMP DP  RH WIND       PRES   REMARKS
BUFFALO          N/A     89  41  18 E12       30.02F
FAITH            N/A     90  38  16 MISG      30.09F
MOBRIDGE       SUNNY     89  52  28 NW8       30.02F
$$

SDZ012>016-024>037-041>051-057-063-072>074-010100-
SOUTHWEST AND SOUTH CENTRAL SOUTH DAKOTA

CITY           SKY/WX    TMP DP  RH WIND       PRES   REMARKS
RAPID CTY ARPT SUNNY     86  55  34 NE8       30.11F
PIERRE         SUNNY     90  47  22 CALM      30.03F
CUSTER         SUNNY     77  47  34 E7        30.27F
ELLSWORTH AFB  SUNNY     87  50  27 E8        30.11F
PHILIP         SUNNY     90  51  26 SE6       30.06F
PINE RIDGE     SUNNY     91  51  25 NE10      30.10F
WINNER         FAIR      90  54  29 E13       30.07S
$$

SDZ004>011-016>023-039-040-010100-
NORTHEAST SOUTH DAKOTA

CITY           SKY/WX    TMP DP  RH WIND       PRES   REMARKS
ABERDEEN       SUNNY     88  56  33 N5        30.00F
WATERTOWN      SUNNY     81  60  48 W8        30.04F
BROOKINGS      SUNNY     81  57  44 W6        30.07F
SISSETON         N/A     83  60  45 NW5       29.99F
$$

SDZ017-020-022-023-036>040-048>070-010100-
SOUTHEAST SOUTH DAKOTA

CITY           SKY/WX    TMP DP  RH WIND       PRES   REMARKS
SIOUX FALLS    MOSUNNY   84  57  39 N3        30.06F
HURON          SUNNY     87  53  31 CALM      30.03F
MITCHELL       SUNNY     85  61  44 SE5       30.04F
YANKTON        SUNNY     82  68  61 E7        30.03F
$$

ABBREVIATIONS USED IN REMARKS
   TC - TEMPERATURE IN CELSIUS
  WCI - WIND CHILL INDEX
   HX - HEAT INDEX
  VSB - VISIBILITY




USA.gov is the U.S. government's official web portal to all federal, state and local government web resources and services.